Hourly Data Report for October 02, 2017

All times are specified in Local Standard Time (LST). Add 1 hour to adjust for Daylight Saving Time where and when it is observed.

NORMAN WELLS A
NORTHWEST TERRITORIES

65°16'53.000" N
126°47'55.000" W
72.50 m
2202801
71043
YVQ

Download Data

Hourly Data (October 2017)
Hourly Data Report for October 2, 2017
Temp Definition
°C
Dew Point Temp Definition
°C
Rel Hum Definition
%
Wind Dir Definition
10's deg

Wind Spd Definition
km/h
Visibility Definition
km
Stn Press Definition
kPa
Hmdx Definition


Wind Chill Definition


Weather Definition


TIME
00:00 Legend Double Dagger -1.8 -3.6 88 5 4 48.3 101.86   -3 LegendNANA
01:00 Legend Double Dagger -1.8 -2.9 92 10 12 48.3 101.87   -6 LegendNANA
02:00 Legend Double Dagger 1.0 -2.2 79 9 11 48.3 101.85     Clear
03:00 Legend Double Dagger -1.4 -3.6 85 1 5 48.3 101.85   -3 LegendNANA
04:00 Legend Double Dagger -1.5 -3.5 86 8 9 48.3 101.78   -5 LegendNANA
05:00 Legend Double Dagger 0.6 -2.2 82 10 9 48.3 101.77     Mainly Clear
06:00 Legend Double Dagger -0.4 -2.8 83 12 12 48.3 101.73   -4 LegendNANA
07:00 Legend Double Dagger -3.8 -5.4 88 36 3 48.3 101.64   -5 LegendNANA
08:00 Legend Double Dagger -3.9 -4.9 93 14 10 48.3 101.56   -8 Mainly Clear
09:00 Legend Double Dagger -0.3 -2.1 88 10 7 48.3 101.52   -3 LegendNANA
10:00 Legend Double Dagger 1.9 -0.1 87 11 7 48.3 101.49     LegendNANA
11:00 Legend Double Dagger 3.2 -0.5 77 11 9 48.3 101.44     Mostly Cloudy
12:00 Legend Double Dagger 4.2 -0.4 72 10 7 48.3 101.35     LegendNANA
13:00 Legend Double Dagger 5.8 -1.0 61 12 11 48.3 101.26     LegendNANA
14:00 Legend Double Dagger 6.4 -0.9 60 10 9 48.3 101.13     Cloudy
15:00 Legend Double Dagger 6.5 -0.5 61 11 16 48.3 101.02     LegendNANA
16:00 Legend Double Dagger 6.5 -0.6 60 11 17 48.3 100.92     LegendNANA
17:00 Legend Double Dagger 6.8 -1.6 55 11 18 48.3 100.72     Cloudy
18:00 Legend Double Dagger 6.9 -0.3 60 12 18 48.3 100.62     LegendNANA
19:00 Legend Double Dagger 6.8 -0.1 61 12 23 48.3 100.58     LegendNANA
20:00 Legend Double Dagger 6.8 1.0 66 12 20 48.3 100.49     Cloudy
21:00 Legend Double Dagger 6.7 1.7 70 14 14 48.3 100.39     LegendNANA
22:00 Legend Double Dagger 6.0 1.8 75 13 12 48.3 100.36     LegendNANA
23:00 Legend Double Dagger 5.8 1.1 72 36 1 48.3 100.39     Cloudy

Notes on Data Quality.

Legend

  • E = Estimated
  • M = Missing
  • NA = Not Available
  • ‡ = Partner data that is not subject to review by the National Climate Archives
Date modified: